Time,TemperatureF,DewpointF,PressureIn,WindDirection,WindDirectionDegrees,WindSpeedMPH,WindSpeedGustMPH,Humidity,HourlyPrecipIn,Conditions,Clouds,dailyrainin,SoftwareType,DateUTC
2013-08-11 00:02:00,48.4,47.8,29.75,SW,225,0.0,0.0,98,0.00,,,0.00,meteohub,2013-08-10 11:02:00,
2013-08-11 00:07:00,48.6,48.0,29.75,SW,225,2.0,2.0,98,0.00,,,0.00,meteohub,2013-08-10 11:07:00,
2013-08-11 00:12:00,48.7,48.2,29.75,SW,225,0.0,2.0,98,0.00,,,0.00,meteohub,2013-08-10 11:12:00,
2013-08-11 00:17:00,48.7,48.2,29.75,SW,225,0.0,2.0,98,0.00,,,0.00,meteohub,2013-08-10 11:17:00,
2013-08-11 00:22:00,48.7,48.2,29.75,SW,225,1.0,2.0,98,0.00,,,0.00,meteohub,2013-08-10 11:22:00,
2013-08-11 00:27:00,48.7,47.8,29.75,SW,225,0.0,2.0,97,0.00,,,0.00,meteohub,2013-08-10 11:27:00,
2013-08-11 00:32:00,48.7,47.8,29.75,SW,225,1.0,2.0,97,0.00,,,0.00,meteohub,2013-08-10 11:32:00,
2013-08-11 00:37:00,48.7,47.8,29.75,SW,225,0.0,2.0,97,0.00,,,0.00,meteohub,2013-08-10 11:37:00,
2013-08-11 00:42:00,48.6,47.7,29.75,SW,225,0.0,1.0,97,0.00,,,0.00,meteohub,2013-08-10 11:42:00,
2013-08-11 00:47:00,48.6,47.7,29.75,SW,225,0.0,1.0,97,0.00,,,0.00,meteohub,2013-08-10 11:47:00,
2013-08-11 00:52:00,48.4,47.5,29.75,South,180,2.0,0.0,97,0.00,,,0.00,meteohub,2013-08-10 11:52:00,
2013-08-11 00:57:00,48.7,47.8,29.75,ESE,113,1.0,2.0,97,0.00,,,0.00,meteohub,2013-08-10 11:57:00,
2013-08-11 01:02:00,48.9,48.0,29.75,West,270,2.0,2.0,97,0.00,,,0.00,meteohub,2013-08-10 12:02:00,
2013-08-11 01:07:00,49.3,48.4,29.75,West,270,0.0,2.0,97,0.00,,,0.00,meteohub,2013-08-10 12:07:00,
2013-08-11 01:12:00,49.5,48.6,29.75,South,180,2.0,3.0,97,0.00,,,0.00,meteohub,2013-08-10 12:12:00,
2013-08-11 01:17:00,49.6,48.7,29.75,West,270,2.0,3.0,97,0.00,,,0.00,meteohub,2013-08-10 12:17:00,
2013-08-11 01:22:00,49.8,48.9,29.76,NW,315,1.0,3.0,97,0.00,,,0.00,meteohub,2013-08-10 12:22:00,
2013-08-11 01:27:00,50.0,48.6,29.76,NE,45,2.0,3.0,95,0.00,,,0.00,meteohub,2013-08-10 12:27:00,
2013-08-11 01:32:00,50.0,48.6,29.76,SW,225,2.0,3.0,95,0.00,,,0.00,meteohub,2013-08-10 12:32:00,
2013-08-11 01:37:00,50.2,48.6,29.76,SW,225,3.0,3.0,94,0.00,,,0.00,meteohub,2013-08-10 12:37:00,
2013-08-11 01:42:00,50.2,48.6,29.76,SW,225,2.0,3.0,94,0.00,,,0.00,meteohub,2013-08-10 12:42:00,
2013-08-11 01:47:00,50.2,48.6,29.77,West,270,1.0,3.0,94,0.00,,,0.00,meteohub,2013-08-10 12:47:00,
2013-08-11 01:52:00,50.0,48.4,29.76,SW,225,0.0,3.0,94,0.00,,,0.00,meteohub,2013-08-10 12:52:00,
2013-08-11 01:57:00,50.0,48.4,29.76,NNW,338,1.0,3.0,94,0.00,,,0.00,meteohub,2013-08-10 12:57:00,
2013-08-11 02:02:00,50.0,48.4,29.76,West,270,2.0,3.0,94,0.00,,,0.00,meteohub,2013-08-10 13:02:00,
2013-08-11 02:07:00,50.0,48.4,29.76,SE,135,1.0,3.0,94,0.00,,,0.00,meteohub,2013-08-10 13:07:00,
2013-08-11 02:12:00,50.0,48.4,29.76,North,0,1.0,3.0,94,0.00,,,0.00,meteohub,2013-08-10 13:12:00,
2013-08-11 02:17:00,49.8,48.4,29.76,South,180,2.0,3.0,95,0.00,,,0.00,meteohub,2013-08-10 13:17:00,
2013-08-11 02:22:00,49.6,48.2,29.77,SE,135,3.0,3.0,95,0.00,,,0.00,meteohub,2013-08-10 13:22:00,
2013-08-11 02:27:00,49.5,48.0,29.77,South,180,1.0,3.0,95,0.00,,,0.00,meteohub,2013-08-10 13:27:00,
2013-08-11 02:32:00,49.3,47.8,29.77,SW,225,0.0,4.0,95,0.00,,,0.00,meteohub,2013-08-10 13:32:00,
2013-08-11 02:37:00,49.1,47.7,29.77,SE,135,2.0,4.0,95,0.00,,,0.00,meteohub,2013-08-10 13:37:00,
2013-08-11 02:42:00,49.1,47.7,29.77,SW,225,1.0,3.0,95,0.00,,,0.00,meteohub,2013-08-10 13:42:00,
2013-08-11 02:47:00,48.9,47.5,29.77,North,0,2.0,2.0,95,0.00,,,0.00,meteohub,2013-08-10 13:47:00,
2013-08-11 02:52:00,48.9,47.5,29.77,SE,135,1.0,4.0,95,0.00,,,0.00,meteohub,2013-08-10 13:52:00,
2013-08-11 02:57:00,48.7,47.7,29.77,NE,45,1.0,4.0,96,0.00,,,0.00,meteohub,2013-08-10 13:57:00,
2013-08-11 03:02:00,48.7,47.7,29.77,SW,225,2.0,4.0,96,0.00,,,0.00,meteohub,2013-08-10 14:02:00,
2013-08-11 03:07:00,48.7,47.7,29.78,East,90,2.0,3.0,96,0.00,,,0.00,meteohub,2013-08-10 14:07:00,
2013-08-11 03:13:00,48.9,47.8,29.78,NW,315,4.0,4.0,96,0.00,,,0.00,meteohub,2013-08-10 14:13:00,
2013-08-11 03:19:00,48.9,47.8,29.78,South,180,1.0,4.0,96,0.00,,,0.00,meteohub,2013-08-10 14:19:00,
2013-08-11 03:25:00,48.9,47.8,29.78,South,180,1.0,4.0,96,0.00,,,0.00,meteohub,2013-08-10 14:25:00,
2013-08-11 03:31:00,48.9,47.8,29.78,West,270,3.0,4.0,96,0.00,,,0.00,meteohub,2013-08-10 14:31:00,
2013-08-11 03:37:00,49.3,48.4,29.78,South,180,2.0,4.0,97,0.00,,,0.00,meteohub,2013-08-10 14:37:00,
2013-08-11 03:42:00,49.6,48.7,29.78,East,90,0.0,4.0,97,0.00,,,0.00,meteohub,2013-08-10 14:42:00,
2013-08-11 03:47:00,50.0,48.9,29.78,South,180,1.0,3.0,96,0.00,,,0.00,meteohub,2013-08-10 14:47:00,
2013-08-11 03:52:00,50.4,49.3,29.79,East,90,1.0,3.0,96,0.00,,,0.00,meteohub,2013-08-10 14:52:00,
2013-08-11 03:58:00,50.5,49.1,29.78,SW,225,1.0,3.0,95,0.00,,,0.00,meteohub,2013-08-10 14:58:00,
2013-08-11 04:04:00,50.7,49.3,29.78,South,180,0.0,2.0,95,0.00,,,0.00,meteohub,2013-08-10 15:04:00,
2013-08-11 04:10:00,50.9,49.5,29.79,South,180,1.0,2.0,95,0.00,,,0.00,meteohub,2013-08-10 15:10:00,
2013-08-11 04:16:00,51.3,49.6,29.79,SW,225,0.0,2.0,94,0.00,,,0.00,meteohub,2013-08-10 15:16:00,
2013-08-11 04:22:00,51.8,49.8,29.79,South,180,2.0,4.0,93,0.00,,,0.00,meteohub,2013-08-10 15:22:00,
2013-08-11 04:27:00,52.2,50.2,29.79,NE,45,3.0,4.0,93,0.00,,,0.00,meteohub,2013-08-10 15:27:00,
2013-08-11 04:32:00,52.9,50.5,29.79,SE,135,0.0,4.0,92,0.00,,,0.00,meteohub,2013-08-10 15:32:00,
2013-08-11 04:37:00,53.4,51.1,29.78,SE,135,1.0,3.0,92,0.00,,,0.00,meteohub,2013-08-10 15:37:00,
2013-08-11 04:42:00,54.1,51.3,29.78,SE,135,0.0,3.0,90,0.00,,,0.00,meteohub,2013-08-10 15:42:00,
2013-08-11 04:47:00,54.7,51.4,29.79,South,180,1.0,3.0,89,0.00,,,0.00,meteohub,2013-08-10 15:47:00,
2013-08-11 04:52:00,55.4,52.0,29.79,South,180,1.0,3.0,88,0.00,,,0.00,meteohub,2013-08-10 15:52:00,
2013-08-11 04:57:00,55.9,52.2,29.79,SW,225,0.0,3.0,87,0.00,,,0.00,meteohub,2013-08-10 15:57:00,
2013-08-11 05:02:00,56.5,52.7,29.78,SE,135,0.0,3.0,87,0.00,,,0.00,meteohub,2013-08-10 16:02:00,
2013-08-11 05:07:00,57.2,52.7,29.78,SW,225,2.0,3.0,85,0.00,,,0.00,meteohub,2013-08-10 16:07:00,
2013-08-11 05:12:00,58.1,53.2,29.79,South,180,1.0,3.0,84,0.00,,,0.00,meteohub,2013-08-10 16:12:00,
2013-08-11 05:17:00,59.4,53.8,29.79,WSW,248,2.0,3.0,82,0.00,,,0.00,meteohub,2013-08-10 16:17:00,
2013-08-11 05:22:00,60.6,54.5,29.78,West,270,2.0,3.0,80,0.00,,,0.00,meteohub,2013-08-10 16:22:00,
2013-08-11 05:27:00,62.1,54.7,29.78,South,180,1.0,3.0,77,0.00,,,0.00,meteohub,2013-08-10 16:27:00,
2013-08-11 05:32:00,62.8,54.3,29.78,South,180,1.0,3.0,74,0.00,,,0.00,meteohub,2013-08-10 16:32:00,
2013-08-11 05:37:00,63.9,54.7,29.78,SW,225,1.0,3.0,72,0.00,,,0.00,meteohub,2013-08-10 16:37:00,
2013-08-11 05:42:00,65.1,55.9,29.78,South,180,2.0,3.0,72,0.00,,,0.00,meteohub,2013-08-10 16:42:00,
2013-08-11 05:47:00,66.6,55.2,29.78,East,90,2.0,2.0,67,0.00,,,0.00,meteohub,2013-08-10 16:47:00,
2013-08-11 05:52:00,67.6,55.0,29.78,NW,315,0.0,2.0,64,0.00,,,0.00,meteohub,2013-08-10 16:52:00,
2013-08-11 05:57:00,68.5,55.4,29.78,South,180,0.0,2.0,63,0.00,,,0.00,meteohub,2013-08-10 16:57:00,
2013-08-11 06:02:00,69.3,55.8,29.77,NE,45,2.0,2.0,62,0.00,,,0.00,meteohub,2013-08-10 17:02:00,
2013-08-11 06:07:00,70.2,55.6,29.78,East,90,1.0,2.0,60,0.00,,,0.00,meteohub,2013-08-10 17:07:00,
2013-08-11 06:12:00,71.4,55.9,29.78,SE,135,1.0,2.0,58,0.00,,,0.00,meteohub,2013-08-10 17:12:00,
2013-08-11 06:17:00,71.6,55.0,29.78,North,0,2.0,2.0,56,0.00,,,0.00,meteohub,2013-08-10 17:17:00,
2013-08-11 06:22:00,71.4,54.9,29.77,North,0,2.0,2.0,56,0.00,,,0.00,meteohub,2013-08-10 17:22:00,
2013-08-11 06:27:00,72.1,55.0,29.77,SE,135,1.0,2.0,55,0.00,,,0.00,meteohub,2013-08-10 17:27:00,
2013-08-11 06:32:00,72.0,53.4,29.77,NNE,23,3.0,4.0,52,0.00,,,0.00,meteohub,2013-08-10 17:32:00,
2013-08-11 06:37:00,71.4,53.4,29.78,South,180,4.0,4.0,53,0.00,,,0.00,meteohub,2013-08-10 17:37:00,
2013-08-11 06:42:00,70.5,52.5,29.78,North,0,2.0,4.0,53,0.00,,,0.00,meteohub,2013-08-10 17:42:00,
2013-08-11 06:47:00,70.5,52.5,29.78,East,90,2.0,4.0,53,0.00,,,0.00,meteohub,2013-08-10 17:47:00,
2013-08-11 06:52:00,71.2,52.7,29.78,NE,45,3.0,4.0,52,0.00,,,0.00,meteohub,2013-08-10 17:52:00,
2013-08-11 06:57:00,71.1,53.1,29.77,ESE,113,2.0,5.0,53,0.00,,,0.00,meteohub,2013-08-10 17:57:00,
2013-08-11 07:02:00,71.6,52.5,29.77,NW,315,4.0,5.0,51,0.00,,,0.00,meteohub,2013-08-10 18:02:00,
2013-08-11 07:07:00,72.7,54.5,29.77,NE,45,4.0,5.0,53,0.00,,,0.00,meteohub,2013-08-10 18:07:00,
2013-08-11 07:12:00,74.3,54.5,29.77,West,270,4.0,4.0,50,0.00,,,0.00,meteohub,2013-08-10 18:12:00,
2013-08-11 07:17:00,75.0,55.6,29.76,NNW,338,2.0,8.0,51,0.00,,,0.00,meteohub,2013-08-10 18:17:00,
2013-08-11 07:22:00,74.5,52.9,29.76,East,90,2.0,8.0,47,0.00,,,0.00,meteohub,2013-08-10 18:22:00,
2013-08-11 07:27:00,75.2,56.3,29.76,North,0,1.0,8.0,52,0.00,,,0.00,meteohub,2013-08-10 18:27:00,
2013-08-11 07:32:00,74.5,54.7,29.77,North,0,2.0,5.0,50,0.00,,,0.00,meteohub,2013-08-10 18:32:00,
2013-08-11 07:37:00,74.1,53.8,29.77,East,90,2.0,5.0,49,0.00,,,0.00,meteohub,2013-08-10 18:37:00,
2013-08-11 07:42:00,74.8,55.0,29.76,East,90,2.0,4.0,50,0.00,,,0.00,meteohub,2013-08-10 18:42:00,
2013-08-11 07:47:00,75.4,54.3,29.76,SW,225,1.0,4.0,48,0.00,,,0.00,meteohub,2013-08-10 18:47:00,
2013-08-11 07:52:00,75.4,54.3,29.76,SW,225,1.0,4.0,48,0.00,,,0.00,meteohub,2013-08-10 18:52:00,
2013-08-11 07:57:00,77.4,54.3,29.76,NW,315,2.0,2.0,45,0.00,,,0.00,meteohub,2013-08-10 18:57:00,
2013-08-11 08:02:00,77.2,54.1,29.76,North,0,2.0,4.0,45,0.00,,,0.00,meteohub,2013-08-10 19:02:00,
2013-08-11 08:07:00,77.4,56.7,29.76,East,90,1.0,4.0,49,0.00,,,0.00,meteohub,2013-08-10 19:07:00,
2013-08-11 08:12:00,78.1,55.0,29.76,North,0,2.0,4.0,45,0.00,,,0.00,meteohub,2013-08-10 19:12:00,
2013-08-11 08:17:00,77.5,53.2,29.76,North,0,1.0,3.0,43,0.00,,,0.00,meteohub,2013-08-10 19:17:00,
2013-08-11 08:22:00,77.0,55.2,29.75,East,90,0.0,2.0,47,0.00,,,0.00,meteohub,2013-08-10 19:22:00,
2013-08-11 08:27:00,76.8,54.5,29.76,NE,45,4.0,4.0,46,0.00,,,0.00,meteohub,2013-08-10 19:27:00,
2013-08-11 08:32:00,76.6,54.3,29.76,East,90,5.0,5.0,46,0.00,,,0.00,meteohub,2013-08-10 19:32:00,
2013-08-11 08:37:00,75.6,52.2,29.76,North,0,2.0,5.0,44,0.00,,,0.00,meteohub,2013-08-10 19:37:00,
2013-08-11 08:42:00,73.8,51.1,29.75,SE,135,1.0,5.0,45,0.00,,,0.00,meteohub,2013-08-10 19:42:00,
2013-08-11 08:47:00,72.3,50.4,29.76,South,180,4.0,7.0,46,0.00,,,0.00,meteohub,2013-08-10 19:47:00,
2013-08-11 08:52:00,70.7,53.2,29.76,North,0,0.0,7.0,54,0.00,,,0.00,meteohub,2013-08-10 19:52:00,
2013-08-11 08:57:00,69.6,56.5,29.76,South,180,1.0,7.0,63,0.02,,,0.02,meteohub,2013-08-10 19:57:00,
2013-08-11 09:02:00,68.0,56.3,29.77,South,180,1.0,7.0,66,0.06,,,0.06,meteohub,2013-08-10 20:02:00,
2013-08-11 09:07:00,65.5,56.3,29.76,South,180,0.0,2.0,72,0.06,,,0.06,meteohub,2013-08-10 20:07:00,
2013-08-11 09:12:00,64.0,56.3,29.77,South,180,0.0,1.0,76,0.06,,,0.06,meteohub,2013-08-10 20:12:00,
2013-08-11 09:17:00,63.5,56.8,29.77,South,180,0.0,2.0,79,0.07,,,0.07,meteohub,2013-08-10 20:17:00,
2013-08-11 09:22:00,63.5,57.2,29.76,NW,315,0.0,2.0,80,0.07,,,0.07,meteohub,2013-08-10 20:22:00,
2013-08-11 09:27:00,63.5,57.9,29.76,NE,45,2.0,2.0,82,0.09,,,0.09,meteohub,2013-08-10 20:27:00,
2013-08-11 09:32:00,63.7,58.5,29.76,East,90,2.0,5.0,83,0.12,,,0.12,meteohub,2013-08-10 20:32:00,
2013-08-11 09:37:00,63.7,58.5,29.76,North,0,0.0,5.0,83,0.12,,,0.12,meteohub,2013-08-10 20:37:00,
2013-08-11 09:42:00,63.7,58.5,29.76,SW,225,0.0,5.0,83,0.12,,,0.12,meteohub,2013-08-10 20:42:00,
2013-08-11 09:47:00,63.1,57.9,29.76,SW,225,0.0,2.0,83,0.13,,,0.13,meteohub,2013-08-10 20:47:00,
2013-08-11 09:52:00,63.0,58.6,29.75,SW,225,0.0,1.0,86,0.12,,,0.13,meteohub,2013-08-10 20:52:00,
2013-08-11 09:57:00,63.0,58.6,29.76,SW,225,1.0,1.0,86,0.08,,,0.13,meteohub,2013-08-10 20:57:00,
2013-08-11 10:02:00,62.6,58.6,29.77,SW,225,0.0,1.0,87,0.07,,,0.13,meteohub,2013-08-10 21:02:00,
2013-08-11 10:07:00,62.8,59.2,29.75,SW,225,0.0,1.0,88,0.07,,,0.13,meteohub,2013-08-10 21:07:00,
2013-08-11 10:12:00,63.0,59.7,29.75,SW,225,0.0,1.0,89,0.07,,,0.13,meteohub,2013-08-10 21:12:00,
2013-08-11 10:17:00,63.3,59.7,29.75,SW,225,1.0,0.0,88,0.06,,,0.13,meteohub,2013-08-10 21:17:00,
2013-08-11 10:22:00,63.9,59.5,29.75,NE,45,1.0,3.0,86,0.05,,,0.13,meteohub,2013-08-10 21:22:00,
2013-08-11 10:27:00,64.2,59.0,29.76,NE,45,0.0,3.0,83,0.02,,,0.13,meteohub,2013-08-10 21:27:00,
2013-08-11 10:32:00,64.4,59.2,29.75,NE,45,0.0,3.0,83,0.01,,,0.13,meteohub,2013-08-10 21:32:00,
2013-08-11 10:37:00,64.4,58.8,29.75,NE,45,0.0,2.0,82,0.01,,,0.13,meteohub,2013-08-10 21:37:00,
2013-08-11 10:42:00,64.8,59.2,29.74,NE,45,1.0,0.0,82,0.01,,,0.13,meteohub,2013-08-10 21:42:00,
2013-08-11 10:47:00,65.3,59.7,29.75,NE,45,0.0,2.0,82,0.00,,,0.13,meteohub,2013-08-10 21:47:00,
2013-08-11 10:52:00,65.5,58.8,29.74,NE,45,0.0,2.0,79,0.00,,,0.13,meteohub,2013-08-10 21:52:00,
2013-08-11 10:57:00,65.5,58.5,29.74,NE,45,0.0,2.0,78,0.00,,,0.13,meteohub,2013-08-10 21:57:00,
2013-08-11 11:02:00,65.5,58.5,29.75,NE,45,0.0,1.0,78,0.00,,,0.13,meteohub,2013-08-10 22:02:00,
2013-08-11 11:07:00,65.7,59.0,29.75,NE,45,1.0,0.0,79,0.00,,,0.13,meteohub,2013-08-10 22:07:00,
2013-08-11 11:12:00,66.2,59.5,29.75,NE,45,0.0,1.0,79,0.00,,,0.13,meteohub,2013-08-10 22:12:00,
2013-08-11 11:17:00,66.7,59.4,29.74,NE,45,1.0,1.0,77,0.00,,,0.13,meteohub,2013-08-10 22:17:00,
2013-08-11 11:22:00,67.3,59.5,29.75,SSW,203,0.0,1.0,76,0.00,,,0.13,meteohub,2013-08-10 22:22:00,
2013-08-11 11:27:00,67.6,59.0,29.75,SSW,203,1.0,1.0,74,0.00,,,0.13,meteohub,2013-08-10 22:27:00,
2013-08-11 11:32:00,68.0,58.6,29.74,NW,315,1.0,1.0,72,0.00,,,0.13,meteohub,2013-08-10 22:32:00,
2013-08-11 11:37:00,68.0,58.6,29.75,South,180,1.0,1.0,72,0.00,,,0.13,meteohub,2013-08-10 22:37:00,
2013-08-11 11:42:00,67.8,58.5,29.75,South,180,0.0,2.0,72,0.00,,,0.13,meteohub,2013-08-10 22:42:00,
2013-08-11 11:45:00,67.8,58.1,29.74,SE,135,0.0,2.0,71,0.00,,,0.13,meteohub,2013-08-10 22:45:00,
2013-08-11 11:51:00,68.0,57.4,29.74,North,0,0.0,2.0,69,0.00,,,0.13,meteohub,2013-08-10 22:51:00,
2013-08-11 11:57:00,68.4,57.0,29.74,NW,315,1.0,2.0,67,0.00,,,0.13,meteohub,2013-08-10 22:57:00,
2013-08-11 12:02:00,68.7,56.5,29.75,NE,45,2.0,2.0,65,0.00,,,0.13,meteohub,2013-08-10 23:02:00,
2013-08-11 12:07:00,68.9,56.7,29.74,SE,135,1.0,2.0,65,0.00,,,0.13,meteohub,2013-08-10 23:07:00,
2013-08-11 12:12:00,69.6,56.8,29.74,West,270,1.0,2.0,64,0.00,,,0.13,meteohub,2013-08-10 23:12:00,
2013-08-11 12:17:00,70.5,56.8,29.74,NW,315,1.0,2.0,62,0.00,,,0.13,meteohub,2013-08-10 23:17:00,
2013-08-11 12:22:00,71.4,57.2,29.74,North,0,3.0,3.0,61,0.00,,,0.13,meteohub,2013-08-10 23:22:00,
2013-08-11 12:27:00,71.2,56.7,29.74,South,180,2.0,4.0,60,0.00,,,0.13,meteohub,2013-08-10 23:27:00,
2013-08-11 12:32:00,70.7,55.6,29.75,SE,135,2.0,4.0,59,0.00,,,0.13,meteohub,2013-08-10 23:32:00,
2013-08-11 12:37:00,70.0,55.0,29.75,ESE,113,1.0,4.0,59,0.00,,,0.13,meteohub,2013-08-10 23:37:00,
2013-08-11 12:42:00,69.4,54.9,29.75,NW,315,2.0,4.0,60,0.00,,,0.13,meteohub,2013-08-10 23:42:00,
2013-08-11 12:47:00,69.1,55.0,29.75,East,90,1.0,4.0,61,0.00,,,0.13,meteohub,2013-08-10 23:47:00,
2013-08-11 12:52:00,68.5,54.5,29.75,NW,315,1.0,2.0,61,0.00,,,0.13,meteohub,2013-08-10 23:52:00,
2013-08-11 12:57:00,68.2,54.1,29.75,West,270,2.0,2.0,61,0.00,,,0.13,meteohub,2013-08-10 23:57:00,
2013-08-11 13:02:00,68.0,54.0,29.75,West,270,2.0,2.0,61,0.00,,,0.13,meteohub,2013-08-11 00:02:00,
2013-08-11 13:07:00,67.6,54.1,29.75,North,0,2.0,2.0,62,0.00,,,0.00,meteohub,2013-08-11 00:07:00,
2013-08-11 13:12:00,67.3,54.3,29.75,West,270,2.0,2.0,63,0.00,,,0.00,meteohub,2013-08-11 00:12:00,
2013-08-11 13:17:00,67.1,53.6,29.76,West,270,1.0,2.0,62,0.00,,,0.00,meteohub,2013-08-11 00:17:00,
2013-08-11 13:22:00,66.9,53.4,29.75,NW,315,1.0,2.0,62,0.00,,,0.00,meteohub,2013-08-11 00:22:00,
2013-08-11 13:27:00,66.9,53.4,29.76,SE,135,0.0,2.0,62,0.00,,,0.00,meteohub,2013-08-11 00:27:00,
2013-08-11 13:32:00,66.7,53.8,29.77,SE,135,0.0,2.0,63,0.00,,,0.00,meteohub,2013-08-11 00:32:00,
2013-08-11 13:37:00,66.6,53.1,29.76,SE,135,1.0,1.0,62,0.00,,,0.00,meteohub,2013-08-11 00:37:00,
2013-08-11 13:42:00,66.4,52.9,29.76,NE,45,1.0,1.0,62,0.00,,,0.00,meteohub,2013-08-11 00:42:00,
2013-08-11 13:47:00,66.4,52.5,29.77,SW,225,0.0,1.0,61,0.00,,,0.00,meteohub,2013-08-11 00:47:00,
2013-08-11 13:52:00,66.4,52.9,29.76,West,270,1.0,1.0,62,0.00,,,0.00,meteohub,2013-08-11 00:52:00,
2013-08-11 13:57:00,66.6,53.6,29.76,SW,225,0.0,2.0,63,0.00,,,0.00,meteohub,2013-08-11 00:57:00,
2013-08-11 14:02:00,66.9,53.1,29.77,NW,315,0.0,2.0,61,0.00,,,0.00,meteohub,2013-08-11 01:02:00,
2013-08-11 14:07:00,67.1,53.2,29.77,NW,315,0.0,2.0,61,0.00,,,0.00,meteohub,2013-08-11 01:07:00,
2013-08-11 14:12:00,67.3,53.8,29.77,SSW,203,0.0,1.0,62,0.00,,,0.00,meteohub,2013-08-11 01:12:00,
2013-08-11 14:17:00,67.3,53.4,29.76,North,0,2.0,2.0,61,0.00,,,0.00,meteohub,2013-08-11 01:17:00,
2013-08-11 14:22:00,67.1,52.7,29.76,NE,45,2.0,2.0,60,0.00,,,0.00,meteohub,2013-08-11 01:22:00,
2013-08-11 14:27:00,66.9,52.5,29.77,North,0,0.0,3.0,60,0.00,,,0.00,meteohub,2013-08-11 01:27:00,
2013-08-11 14:32:00,66.9,52.5,29.77,South,180,1.0,3.0,60,0.00,,,0.00,meteohub,2013-08-11 01:32:00,
2013-08-11 14:37:00,66.9,52.5,29.76,South,180,1.0,3.0,60,0.00,,,0.00,meteohub,2013-08-11 01:37:00,
2013-08-11 14:42:00,66.9,52.2,29.76,North,0,1.0,2.0,59,0.00,,,0.00,meteohub,2013-08-11 01:42:00,
2013-08-11 14:47:00,66.9,52.2,29.77,SE,135,1.0,2.0,59,0.00,,,0.00,meteohub,2013-08-11 01:47:00,
2013-08-11 14:52:00,66.9,53.1,29.77,SE,135,0.0,2.0,61,0.00,,,0.00,meteohub,2013-08-11 01:52:00,
2013-08-11 14:57:00,66.7,52.3,29.77,SE,135,0.0,2.0,60,0.00,,,0.00,meteohub,2013-08-11 01:57:00,
2013-08-11 15:02:00,66.4,52.5,29.77,SE,135,1.0,1.0,61,0.00,,,0.00,meteohub,2013-08-11 02:02:00,
2013-08-11 15:07:00,66.2,52.9,29.78,SE,135,0.0,1.0,62,0.00,,,0.00,meteohub,2013-08-11 02:07:00,
2013-08-11 15:12:00,65.8,52.9,29.78,SE,135,0.0,1.0,63,0.00,,,0.00,meteohub,2013-08-11 02:12:00,
2013-08-11 15:17:00,65.7,53.2,29.77,SE,135,0.0,1.0,64,0.00,,,0.00,meteohub,2013-08-11 02:17:00,
2013-08-11 15:22:00,65.1,53.1,29.78,SE,135,0.0,1.0,65,0.00,,,0.00,meteohub,2013-08-11 02:22:00,
2013-08-11 15:27:00,64.8,52.7,29.78,SE,135,0.0,1.0,65,0.00,,,0.00,meteohub,2013-08-11 02:27:00,
2013-08-11 15:32:00,64.4,52.9,29.78,SE,135,0.0,0.0,66,0.00,,,0.00,meteohub,2013-08-11 02:32:00,
2013-08-11 15:37:00,64.0,53.2,29.78,SE,135,0.0,0.0,68,0.00,,,0.00,meteohub,2013-08-11 02:37:00,
2013-08-11 15:42:00,63.7,52.9,29.78,East,90,0.0,1.0,68,0.00,,,0.00,meteohub,2013-08-11 02:42:00,
2013-08-11 15:47:00,63.5,52.7,29.79,East,90,0.0,1.0,68,0.00,,,0.00,meteohub,2013-08-11 02:47:00,
2013-08-11 15:52:00,63.3,52.5,29.79,East,90,0.0,1.0,68,0.00,,,0.00,meteohub,2013-08-11 02:52:00,
2013-08-11 15:57:00,63.0,52.2,29.78,North,0,0.0,1.0,68,0.00,,,0.00,meteohub,2013-08-11 02:57:00,
2013-08-11 16:02:00,62.8,52.0,29.79,North,0,0.0,1.0,68,0.00,,,0.00,meteohub,2013-08-11 03:02:00,
2013-08-11 16:07:00,62.4,52.2,29.79,North,0,0.0,1.0,69,0.00,,,0.00,meteohub,2013-08-11 03:07:00,
2013-08-11 16:12:00,62.1,52.2,29.79,South,180,1.0,1.0,70,0.00,,,0.00,meteohub,2013-08-11 03:12:00,
2013-08-11 16:17:00,61.9,52.3,29.79,South,180,0.0,1.0,71,0.00,,,0.00,meteohub,2013-08-11 03:17:00,
2013-08-11 16:22:00,61.5,52.0,29.79,South,180,0.0,1.0,71,0.00,,,0.00,meteohub,2013-08-11 03:22:00,
2013-08-11 16:27:00,61.3,51.8,29.79,South,180,0.0,1.0,71,0.00,,,0.00,meteohub,2013-08-11 03:27:00,
2013-08-11 16:32:00,61.0,52.3,29.79,South,180,0.0,1.0,73,0.00,,,0.00,meteohub,2013-08-11 03:32:00,
2013-08-11 16:37:00,60.8,51.8,29.80,South,180,0.0,1.0,72,0.00,,,0.00,meteohub,2013-08-11 03:37:00,
2013-08-11 16:42:00,60.6,52.0,29.79,South,180,0.0,0.0,73,0.00,,,0.00,meteohub,2013-08-11 03:42:00,
2013-08-11 16:47:00,60.4,51.8,29.80,South,180,0.0,0.0,73,0.00,,,0.00,meteohub,2013-08-11 03:47:00,
2013-08-11 16:55:00,60.1,51.4,29.80,South,180,0.0,0.0,73,0.00,,,0.00,meteohub,2013-08-11 03:55:00,
2013-08-11 17:01:00,59.9,51.3,29.80,South,180,0.0,0.0,73,0.00,,,0.00,meteohub,2013-08-11 04:01:00,
2013-08-11 17:02:00,59.9,51.3,29.80,South,180,0.0,0.0,73,0.00,,,0.00,meteohub,2013-08-11 04:02:00,
2013-08-11 17:07:00,59.9,51.6,29.81,South,180,0.0,0.0,74,0.00,,,0.00,meteohub,2013-08-11 04:07:00,
2013-08-11 17:12:00,59.7,51.8,29.81,South,180,0.0,0.0,75,0.00,,,0.00,meteohub,2013-08-11 04:12:00,
2013-08-11 17:17:00,59.5,52.3,29.81,South,180,0.0,0.0,77,0.00,,,0.00,meteohub,2013-08-11 04:17:00,
2013-08-11 17:22:00,59.4,52.2,29.81,South,180,0.0,1.0,77,0.00,,,0.00,meteohub,2013-08-11 04:22:00,
2013-08-11 17:27:00,59.4,52.5,29.82,South,180,0.0,1.0,78,0.00,,,0.00,meteohub,2013-08-11 04:27:00,
2013-08-11 17:32:00,59.2,52.3,29.81,South,180,0.0,1.0,78,0.00,,,0.00,meteohub,2013-08-11 04:32:00,
2013-08-11 17:37:00,59.2,52.3,29.82,South,180,0.0,0.0,78,0.00,,,0.00,meteohub,2013-08-11 04:37:00,
2013-08-11 17:42:00,59.0,52.5,29.82,South,180,0.0,0.0,79,0.00,,,0.00,meteohub,2013-08-11 04:42:00,
2013-08-11 17:47:00,59.0,52.5,29.82,South,180,1.0,0.0,79,0.00,,,0.00,meteohub,2013-08-11 04:47:00,
2013-08-11 17:52:00,58.8,53.1,29.83,NE,45,0.0,1.0,81,0.00,,,0.00,meteohub,2013-08-11 04:52:00,
2013-08-11 17:57:00,58.8,53.1,29.83,NE,45,0.0,1.0,81,0.00,,,0.00,meteohub,2013-08-11 04:57:00,
2013-08-11 18:02:00,58.8,53.1,29.83,South,180,0.0,1.0,81,0.00,,,0.00,meteohub,2013-08-11 05:02:00,
2013-08-11 18:07:00,58.8,53.1,29.82,South,180,0.0,1.0,81,0.00,,,0.00,meteohub,2013-08-11 05:07:00,
2013-08-11 18:13:00,58.8,53.4,29.83,South,180,0.0,1.0,82,0.00,,,0.00,meteohub,2013-08-11 05:13:00,
2013-08-11 18:20:00,58.6,52.9,29.83,South,180,0.0,1.0,81,0.00,,,0.00,meteohub,2013-08-11 05:20:00,
2013-08-11 18:26:00,58.6,53.2,29.83,South,180,0.0,0.0,82,0.00,,,0.00,meteohub,2013-08-11 05:26:00,
2013-08-11 18:32:00,58.5,52.7,29.82,South,180,0.0,0.0,81,0.00,,,0.00,meteohub,2013-08-11 05:32:00,
2013-08-11 18:37:00,58.5,53.1,29.82,South,180,0.0,0.0,82,0.00,,,0.00,meteohub,2013-08-11 05:37:00,
2013-08-11 18:42:00,58.5,53.1,29.82,South,180,0.0,0.0,82,0.00,,,0.00,meteohub,2013-08-11 05:42:00,
2013-08-11 18:47:00,58.5,53.1,29.82,South,180,0.0,1.0,82,0.00,,,0.00,meteohub,2013-08-11 05:47:00,
2013-08-11 18:52:00,58.3,52.9,29.82,South,180,0.0,1.0,82,0.00,,,0.00,meteohub,2013-08-11 05:52:00,
2013-08-11 18:57:00,58.3,52.9,29.83,South,180,0.0,1.0,82,0.00,,,0.00,meteohub,2013-08-11 05:57:00,
2013-08-11 19:02:00,58.3,52.9,29.83,South,180,0.0,0.0,82,0.00,,,0.00,meteohub,2013-08-11 06:02:00,
2013-08-11 19:07:00,58.3,52.9,29.82,South,180,0.0,0.0,82,0.00,,,0.00,meteohub,2013-08-11 06:07:00,
2013-08-11 19:12:00,57.9,52.7,29.82,South,180,0.0,0.0,83,0.00,,,0.00,meteohub,2013-08-11 06:12:00,
2013-08-11 19:17:00,57.7,52.7,29.82,South,180,0.0,0.0,83,0.00,,,0.00,meteohub,2013-08-11 06:17:00,
2013-08-11 19:22:00,57.6,52.5,29.82,South,180,0.0,0.0,83,0.00,,,0.00,meteohub,2013-08-11 06:22:00,
2013-08-11 19:27:00,57.4,52.3,29.82,South,180,0.0,0.0,83,0.00,,,0.00,meteohub,2013-08-11 06:27:00,
2013-08-11 19:32:00,57.2,52.2,29.82,South,180,0.0,0.0,83,0.00,,,0.00,meteohub,2013-08-11 06:32:00,
2013-08-11 19:37:00,56.8,52.0,29.82,South,180,0.0,0.0,84,0.00,,,0.00,meteohub,2013-08-11 06:37:00,
2013-08-11 19:42:00,56.5,52.0,29.82,South,180,0.0,0.0,85,0.00,,,0.00,meteohub,2013-08-11 06:42:00,
2013-08-11 19:49:00,55.9,51.4,29.82,South,180,0.0,0.0,85,0.00,,,0.00,meteohub,2013-08-11 06:49:00,
2013-08-11 19:55:00,55.6,51.1,29.82,South,180,0.0,0.0,85,0.00,,,0.00,meteohub,2013-08-11 06:55:00,
2013-08-11 20:01:00,55.0,50.9,29.82,South,180,0.0,0.0,86,0.00,,,0.00,meteohub,2013-08-11 07:01:00,
2013-08-11 20:07:00,54.7,50.5,29.82,NW,315,1.0,1.0,86,0.00,,,0.00,meteohub,2013-08-11 07:07:00,
2013-08-11 20:13:00,54.5,50.7,29.82,SW,225,0.0,1.0,87,0.00,,,0.00,meteohub,2013-08-11 07:13:00,
2013-08-11 20:19:00,54.1,50.4,29.82,SW,225,0.0,1.0,87,0.00,,,0.00,meteohub,2013-08-11 07:19:00,
2013-08-11 20:26:00,54.0,50.2,29.81,SW,225,0.0,0.0,87,0.00,,,0.00,meteohub,2013-08-11 07:26:00,
2013-08-11 20:31:00,53.6,50.2,29.82,SW,225,0.0,0.0,88,0.00,,,0.00,meteohub,2013-08-11 07:31:00,
2013-08-11 20:37:00,53.2,50.0,29.81,SW,225,2.0,0.0,89,0.00,,,0.00,meteohub,2013-08-11 07:37:00,
2013-08-11 20:42:00,53.1,49.8,29.81,SW,225,0.0,2.0,89,0.00,,,0.00,meteohub,2013-08-11 07:42:00,
2013-08-11 20:47:00,52.7,49.8,29.81,SW,225,0.0,2.0,90,0.00,,,0.00,meteohub,2013-08-11 07:47:00,
2013-08-11 20:53:00,52.3,49.5,29.81,SW,225,0.0,2.0,90,0.00,,,0.00,meteohub,2013-08-11 07:53:00,
2013-08-11 20:59:00,52.2,49.3,29.82,SW,225,0.0,1.0,90,0.00,,,0.00,meteohub,2013-08-11 07:59:00,
2013-08-11 21:05:00,52.0,49.1,29.82,SW,225,0.0,1.0,90,0.00,,,0.00,meteohub,2013-08-11 08:05:00,
2013-08-11 21:11:00,51.6,49.5,29.82,SW,225,0.0,0.0,92,0.00,,,0.00,meteohub,2013-08-11 08:11:00,
2013-08-11 21:17:00,51.4,49.3,29.82,SW,225,0.0,0.0,92,0.00,,,0.00,meteohub,2013-08-11 08:17:00,
2013-08-11 21:22:00,51.1,48.9,29.82,SW,225,0.0,0.0,92,0.00,,,0.00,meteohub,2013-08-11 08:22:00,
2013-08-11 21:27:00,51.1,48.9,29.82,SW,225,0.0,0.0,92,0.00,,,0.00,meteohub,2013-08-11 08:27:00,
2013-08-11 21:32:00,50.9,48.9,29.81,SW,225,0.0,1.0,93,0.00,,,0.00,meteohub,2013-08-11 08:32:00,
2013-08-11 21:37:00,50.9,48.9,29.81,SW,225,0.0,1.0,93,0.00,,,0.00,meteohub,2013-08-11 08:37:00,
2013-08-11 21:42:00,50.9,48.9,29.81,SW,225,0.0,1.0,93,0.00,,,0.00,meteohub,2013-08-11 08:42:00,
2013-08-11 21:48:00,50.7,49.1,29.81,SW,225,0.0,0.0,94,0.00,,,0.00,meteohub,2013-08-11 08:48:00,
2013-08-11 21:54:00,50.7,49.1,29.81,SW,225,0.0,0.0,94,0.00,,,0.00,meteohub,2013-08-11 08:54:00,
2013-08-11 22:00:00,51.1,49.5,29.81,North,0,0.0,1.0,94,0.00,,,0.00,meteohub,2013-08-11 09:00:00,
2013-08-11 22:07:00,51.4,49.8,29.81,SW,225,1.0,1.0,94,0.00,,,0.00,meteohub,2013-08-11 09:07:00,
2013-08-11 22:12:00,51.8,49.8,29.81,SW,225,0.0,1.0,93,0.00,,,0.00,meteohub,2013-08-11 09:12:00,
2013-08-11 22:17:00,52.2,50.2,29.81,SE,135,1.0,1.0,93,0.00,,,0.00,meteohub,2013-08-11 09:17:00,
2013-08-11 22:22:00,52.5,50.5,29.81,SE,135,1.0,5.0,93,0.00,,,0.00,meteohub,2013-08-11 09:22:00,
2013-08-11 22:27:00,52.9,50.9,29.82,South,180,1.0,5.0,93,0.00,,,0.00,meteohub,2013-08-11 09:27:00,
2013-08-11 22:32:00,52.9,50.5,29.81,North,0,2.0,5.0,92,0.00,,,0.00,meteohub,2013-08-11 09:32:00,
2013-08-11 22:37:00,53.1,50.7,29.81,SW,225,1.0,2.0,92,0.00,,,0.00,meteohub,2013-08-11 09:37:00,
2013-08-11 22:42:00,53.1,50.5,29.81,NW,315,2.0,2.0,91,0.00,,,0.00,meteohub,2013-08-11 09:42:00,
2013-08-11 22:50:00,52.9,50.0,29.81,South,180,1.0,2.0,90,0.00,,,0.00,meteohub,2013-08-11 09:50:00,
2013-08-11 22:56:00,52.9,50.0,29.81,SW,225,1.0,2.0,90,0.00,,,0.00,meteohub,2013-08-11 09:56:00,
2013-08-11 23:02:00,52.9,50.0,29.82,SW,225,2.0,4.0,90,0.00,,,0.00,meteohub,2013-08-11 10:02:00,
2013-08-11 23:07:00,52.9,50.0,29.82,SW,225,2.0,4.0,90,0.00,,,0.00,meteohub,2013-08-11 10:07:00,
2013-08-11 23:12:00,52.9,50.0,29.81,South,180,1.0,4.0,90,0.00,,,0.00,meteohub,2013-08-11 10:12:00,
2013-08-11 23:17:00,52.7,49.5,29.81,SW,225,0.0,2.0,89,0.00,,,0.00,meteohub,2013-08-11 10:17:00,
2013-08-11 23:23:00,52.7,49.5,29.82,SE,135,1.0,2.0,89,0.00,,,0.00,meteohub,2013-08-11 10:23:00,
2013-08-11 23:29:00,52.5,49.5,29.82,East,90,0.0,2.0,89,0.00,,,0.00,meteohub,2013-08-11 10:29:00,
2013-08-11 23:36:00,52.5,49.5,29.82,South,180,0.0,2.0,89,0.00,,,0.00,meteohub,2013-08-11 10:36:00,
2013-08-11 23:42:00,52.3,49.3,29.82,South,180,1.0,2.0,89,0.00,,,0.00,meteohub,2013-08-11 10:42:00,
2013-08-11 23:47:00,52.3,49.3,29.82,West,270,0.0,2.0,89,0.00,,,0.00,meteohub,2013-08-11 10:47:00,
2013-08-11 23:52:00,52.2,49.1,29.82,South,180,0.0,2.0,89,0.00,,,0.00,meteohub,2013-08-11 10:52:00,
2013-08-11 23:57:00,52.2,49.1,29.82,South,180,0.0,1.0,89,0.00,,,0.00,meteohub,2013-08-11 10:57:00,